DW1779 Weather Reports


time (UTC)temp
F
wind
direction
speed
knots
gust
knots
rain 1hr
in
rain 24hr
in
rain mn
in
humidity
%
barometer
mb
20260503210648 74 242 4.3 13.0 0.00 0.00 0.00 45 1012.6
20260503210050 74 221 5.2 18.2 0.00 0.00 0.00 43 1012.7
20260503205550 74 156 5.2 12.2 0.00 0.00 0.00 44 1012.8
20260503205049 74 213 5.2 16.5 0.00 0.00 0.00 45 1012.9
20260503204548 74 187 9.6 16.5 0.00 0.00 0.00 44 1013.1
20260503204047 74 157 6.1 19.1 0.00 0.00 0.00 45 1013.2
20260503203547 74 196 5.2 19.1 0.00 0.00 0.00 44 1013.4
20260503203048 74 184 3.5 11.3 0.00 0.00 0.00 43 1013.6
20260503202550 74 183 2.6 9.6 0.00 0.00 0.00 44 1013.6
20260503202045 74 133 2.6 18.2 0.00 0.00 0.00 44 1013.8
20260503201549 74 165 8.7 18.2 0.00 0.00 0.00 41 1013.9
20260503201043 74 232 4.3 17.4 0.00 0.00 0.00 43 1014.0
20260503200644 74 151 2.6 13.9 0.00 0.00 0.00 46 1014.1
20260503200047 73 195 5.2 17.4 0.00 0.00 0.00 43 1014.1
20260503195545 73 219 5.2 17.4 0.00 0.00 0.00 43 1014.3
20260503195045 74 234 7.0 17.4 0.00 0.00 0.00 45 1014.3
20260503194553 73 247 4.3 13.9 0.00 0.00 0.00 42 1014.3
20260503194046 74 216 2.6 13.9 0.00 0.00 0.00 43 1014.6
20260503193543 73 308 3.5 10.4 0.00 0.00 0.00 45 1014.6
20260503193041 74 238 5.2 10.4 0.00 0.00 0.00 43 1014.8
20260503192540 73 192 2.6 13.0 0.00 0.00 0.00 43 1014.9
20260503192040 73 145 7.0 13.9 0.00 0.00 0.00 41 1014.9
20260503191539 73 190 4.3 13.9 0.00 0.00 0.00 42 1014.9
20260503191039 72 190 5.2 14.8 0.00 0.00 0.00 42 1015.0
20260503190641 72 196 3.5 19.1 0.00 0.00 0.00 41 1015.0
20260503190046 72 218 4.3 18.2 0.00 0.00 0.00 44 1015.0
20260503185542 72 219 6.1 15.6 0.00 0.00 0.00 41 1015.2
20260503185042 72 210 2.6 15.6 0.00 0.00 0.00 46 1015.1
20260503184543 71 150 7.8 15.6 0.00 0.00 0.00 41 1015.3
20260503184041 72 227 6.1 14.8 0.00 0.00 0.00 41 1015.4
20260503183539 72 178 7.0 13.9 0.00 0.00 0.00 42 1015.5
20260503183042 72 281 3.5 13.0 0.00 0.00 0.00 43 1015.7
20260503182537 72 265 4.3 13.0 0.00 0.00 0.00 41 1015.7
20260503182036 71 208 4.3 11.3 0.00 0.00 0.00 42 1015.8
20260503181554 72 215 2.6 13.0 0.00 0.00 0.00 45 1016.1
20260503181038 71 135 2.6 16.5 0.00 0.00 0.00 48 1016.1
20260503180505 70 233 5.2 16.5 0.00 0.00 0.00 44 1016.1
20260503180013 70 142 2.6 15.6 0.00 0.00 0.00 47 1016.2
20260503175504 71 172 4.3 12.2 0.00 0.00 0.00 46 1016.5
20260503175002 70 229 0.9 12.2 0.00 0.00 0.00 51 1016.6
20260503174618 70 177 2.6 10.4 0.00 0.00 0.00 42 1016.8
20260503174102 69 171 5.2 10.4 0.00 0.00 0.00 44 1017.1
20260503173558 69 190 4.3 16.5 0.00 0.00 0.00 46 1017.2
20260503173110 69 212 6.1 16.5 0.00 0.00 0.00 44 1017.4
20260503172557 69 329 3.5 13.0 0.00 0.00 0.00 44 1017.5
20260503172054 69 222 4.3 13.0 0.00 0.00 0.00 46 1017.6
20260503171552 69 180 2.6 8.7 0.00 0.00 0.00 46 1017.9
20260503171052 68 177 3.5 11.3 0.00 0.00 0.00 45 1017.9
20260503170502 67 308 3.5 16.5 0.00 0.00 0.00 46 1018.0
20260503150645 60 293 6.1 12.2 0.00 0.00 0.00 56 1019.7
20260503131054 49 139 5.2 12.2 0.00 0.00 0.00 74 1020.0
20260503130531 49 190 2.6 7.8 0.00 0.00 0.00 76 1020.0
20260503010636 49 300 0.0 0.0 0.00 0.00 0.00 72 1019.7
20260503010103 50 300 0.0 0.0 0.00 0.00 0.00 70 1019.7
20260503005600 51 300 0.0 0.0 0.00 0.00 0.00 66 1019.7
20260503005058 52 300 0.0 0.0 0.00 0.00 0.00 66 1019.7
20260503004602 53 300 0.0 0.0 0.00 0.00 0.00 63 1019.6
20260503004057 53 300 0.0 1.7 0.00 0.00 0.00 61 1019.7
20260503003557 55 300 0.0 1.7 0.00 0.00 0.00 56 1019.7
20260503003101 55 300 0.0 2.6 0.00 0.00 0.00 53 1019.7
20260503002553 56 309 0.9 2.6 0.00 0.00 0.00 52 1019.7
20260503002057 56 314 0.0 2.6 0.00 0.00 0.00 52 1019.6
20260503001601 57 5 0.0 3.5 0.00 0.00 0.00 50 1019.5
20260503001053 57 338 0.9 4.3 0.00 0.00 0.00 49 1019.6
20260503000653 57 11 0.9 4.3 0.00 0.00 0.00 47 1019.5
20260503000053 58 355 1.7 4.3 0.00 0.00 0.00 49 1019.5
20260502235553 58 307 0.9 7.0 0.00 0.00 0.00 49 1019.4
20260502235053 58 347 1.7 7.0 0.00 0.00 0.00 48 1019.5
20260502234555 58 298 1.7 7.0 0.00 0.00 0.00 45 1019.4
20260502234053 58 14 1.7 7.8 0.00 0.00 0.00 47 1019.3
20260502233552 58 313 1.7 7.8 0.00 0.00 0.00 45 1019.4
20260502233050 59 321 2.6 7.8 0.00 0.00 0.00 45 1019.4
20260502232548 59 319 1.7 7.8 0.00 0.00 0.00 46 1019.5
20260502232048 59 280 2.6 8.7 0.00 0.00 0.00 45 1019.5
20260502231551 59 291 3.5 8.7 0.00 0.00 0.00 47 1019.5
20260502231052 59 286 3.5 10.4 0.00 0.00 0.00 45 1019.6
20260502230650 59 294 3.5 10.4 0.00 0.00 0.00 45 1019.5
20260502230048 59 323 3.5 10.4 0.00 0.00 0.00 46 1019.5
20260502225547 59 304 2.6 9.6 0.00 0.00 0.00 47 1019.5
20260502225048 59 314 3.5 10.4 0.00 0.00 0.00 44 1019.5
20260502224547 59 355 4.3 10.4 0.00 0.00 0.00 43 1019.5
20260502224047 59 79 4.3 10.4 0.00 0.00 0.00 43 1019.5
20260502223547 59 28 3.5 10.4 0.00 0.00 0.00 45 1019.5
20260502223043 59 271 6.1 10.4 0.00 0.00 0.00 43 1019.5
20260502222543 59 324 2.6 7.0 0.00 0.00 0.00 44 1019.5
20260502222045 60 338 2.6 7.0 0.00 0.00 0.00 47 1019.5
20260502221544 59 281 3.5 8.7 0.00 0.00 0.00 43 1019.5
20260502221043 60 296 4.3 10.4 0.00 0.00 0.00 48 1019.5
20260502220644 60 360 4.3 10.4 0.00 0.00 0.00 47 1019.5
20260502220057 60 296 2.6 8.7 0.00 0.00 0.00 45 1019.6
20260502215541 59 321 3.5 7.0 0.00 0.00 0.00 45 1019.5
20260502215042 59 11 2.6 10.4 0.00 0.00 0.00 46 1019.5
20260502214542 58 306 1.7 10.4 0.00 0.00 0.00 48 1019.5
20260502214041 59 5 2.6 10.4 0.00 0.00 0.00 45 1019.6
20260502213541 60 338 2.6 10.4 0.00 0.00 0.00 44 1019.5
20260502213041 59 292 1.7 10.4 0.00 0.00 0.00 44 1019.5
20260502212538 59 300 3.5 10.4 0.00 0.00 0.00 46 1019.6
20260502212037 59 290 4.3 7.8 0.00 0.00 0.00 47 1019.5
20260502211541 58 315 2.6 9.6 0.00 0.00 0.00 45 1019.4
20260502211040 57 279 1.7 9.6 0.00 0.00 0.00 50 1019.5